{"data":{"norad_id":45540,"intl_designator":"2020-025K","name":"STARLINK-1368","alt_names":[],"object_type":"PAYLOAD","status":"ACTIVE","operator":null,"country":"US","launch_date":"2020-04-22","launch_site_code":"AFETR","launch_vehicle":null,"mission":null,"orbit_class":"UNKNOWN","rcs_meters":null,"size_class":null,"mass_kg":null,"dimensions":null,"purposes":["comms"],"wikipedia_slug":null,"has_3d_model":false,"image_url":null,"decayed_at":null,"tle_current":{"epoch":"2026-05-25T03:44:51.722880Z","epoch_age_seconds":54760,"freshness":"FRESH","line1":"1 45540U 20025K   26145.15615420  .00043256  00000+0  12238-2 0  9996","line2":"2 45540  53.1561 104.8014 0004805  72.0302 288.1225 15.35900884336890","mean_motion":15.35900884,"eccentricity":0.0004805,"inclination_deg":53.1561,"raan_deg":104.8014,"arg_perigee_deg":72.0302,"mean_anomaly_deg":288.1225,"bstar":0.0012238,"rev_number":33689,"period_min":93.756049950942,"perigee_km":454.96104775799,"apogee_km":461.53081175349,"semimajor_km":6836.3829297557,"source":"CELESTRAK","updated_at":"2026-05-25T13:38:16.421705Z"}}}